• In Uzbekistan
  • List of Countries
  • For 7 days
  • Water Temperature
  • Satellite Maps
  • Weather Map
  • Weather Widgets
  • user-avatar
    Login

    Hourly Weather Bad Rappenau

    Today, 24 November, Friday

    Time Temperature Precipitation Wind Pressure Humidity
    00:00 +10°C° 0 mm 3 mps 739 mmHg 79%
    01:00 +10°C° 0 mm 3 mps 739 mmHg 80%
    02:00 +9°C° 0 mm 3 mps 739 mmHg 80%
    03:00 +9°C° 0 mm 3 mps 739 mmHg 81%
    04:00 +9°C° 0 mm 3 mps 738 mmHg 82%
    05:00 +9°C° 0 mm 3 mps 738 mmHg 80%
    06:00 +9°C° 0 mm 3 mps 738 mmHg 78%
    07:00 +8°C° 0 mm 4 mps 738 mmHg 76%
    08:00 +10°C° 0.1 mm 4 mps 738 mmHg 73%
    09:00 +10°C° 0.1 mm 4 mps 738 mmHg 70%
    10:00 +11°C° 0.1 mm 4 mps 738 mmHg 67%
    11:00 +12°C° 0.1 mm 5 mps 738 mmHg 66%
    12:00 +13°C° 0.1 mm 5 mps 737 mmHg 66%
    13:00 +14°C° 0.1 mm 5 mps 737 mmHg 66%
    14:00 +13°C° 0.2 mm 4 mps 737 mmHg 71%
    15:00 +12°C° 0.2 mm 4 mps 737 mmHg 75%
    16:00 +12°C° 0.2 mm 4 mps 738 mmHg 80%
    17:00 +11°C° 0.2 mm 3 mps 738 mmHg 83%
    18:00 +11°C° 0.2 mm 3 mps 738 mmHg 86%
    19:00 +10°C° 0.2 mm 3 mps 738 mmHg 89%
    20:00 +10°C° 0.5 mm 3 mps 738 mmHg 90%
    21:00 +10°C° 0.5 mm 2 mps 738 mmHg 92%
    22:00 +10°C° 0.5 mm 2 mps 738 mmHg 93%
    23:00 +10°C° 0.8 mm 2 mps 737 mmHg 93%

    Tomorrow, 25 November, Saturday

    Time Temperature Precipitation Wind Pressure Humidity
    00:00 +10°C° 0.8 mm 2 mps 737 mmHg 93%
    01:00 +9°C° 0.8 mm 2 mps 736 mmHg 94%
    02:00 +9°C° 1.5 mm 2 mps 735 mmHg 94%
    03:00 +9°C° 1.5 mm 2 mps 735 mmHg 94%
    04:00 +9°C° 1.5 mm 2 mps 734 mmHg 93%
    05:00 +9°C° 1.2 mm 2 mps 734 mmHg 93%
    06:00 +9°C° 1.2 mm 3 mps 733 mmHg 92%
    07:00 +8°C° 1.2 mm 3 mps 733 mmHg 91%
    08:00 +8°C° 1.4 mm 3 mps 733 mmHg 91%
    09:00 +7°C° 1.4 mm 3 mps 734 mmHg 91%
    10:00 +6°C° 1.4 mm 4 mps 734 mmHg 90%
    11:00 +6°C° 0.3 mm 4 mps 735 mmHg 88%
    12:00 +6°C° 0.3 mm 4 mps 736 mmHg 86%
    13:00 +6°C° 0.3 mm 5 mps 737 mmHg 84%
    14:00 +6°C° 0.1 mm 4 mps 737 mmHg 82%
    15:00 +5°C° 0.1 mm 4 mps 738 mmHg 81%
    16:00 +5°C° 0.1 mm 4 mps 738 mmHg 80%
    17:00 +4°C° 0.1 mm 3 mps 739 mmHg 80%
    18:00 +4°C° 0.1 mm 3 mps 740 mmHg 80%
    19:00 +5°C° 0.1 mm 2 mps 740 mmHg 81%
    20:00 +4°C° 0.1 mm 2 mps 741 mmHg 82%
    21:00 +4°C° 0.1 mm 2 mps 742 mmHg 83%
    22:00 +3°C° 0.1 mm 2 mps 742 mmHg 84%
    23:00 +3°C° 0.1 mm 2 mps 743 mmHg 84%

    Day after tomorrow, 26 November, Sunday

    Time Temperature Precipitation Wind Pressure Humidity
    00:00 +3°C° 0.1 mm 2 mps 743 mmHg 84%
    01:00 +2°C° 0.1 mm 3 mps 743 mmHg 84%
    02:00 +1°C° 0.2 mm 3 mps 744 mmHg 85%
    03:00 +1°C° 0.2 mm 3 mps 744 mmHg 86%
    04:00 +1°C° 0.2 mm 3 mps 745 mmHg 86%
    05:00 0°C° 0 mm 3 mps 745 mmHg 87%
    06:00 0°C° 0 mm 3 mps 746 mmHg 88%
    07:00 -1°C° 0 mm 3 mps 746 mmHg 88%
    08:00 0°C° 0 mm 3 mps 747 mmHg 87%
    09:00 -1°C° 0 mm 4 mps 747 mmHg 85%
    10:00 0°C° 0 mm 4 mps 748 mmHg 83%
    11:00 0°C° 0 mm 5 mps 748 mmHg 79%
    12:00 +1°C° 0 mm 5 mps 748 mmHg 76%
    13:00 +2°C° 0 mm 5 mps 747 mmHg 72%
    14:00 +1°C° 0 mm 4 mps 748 mmHg 73%
    15:00 +1°C° 0 mm 4 mps 748 mmHg 74%
    16:00 +1°C° 0 mm 4 mps 748 mmHg 76%
    17:00 0°C° 0 mm 4 mps 748 mmHg 78%
    18:00 0°C° 0 mm 4 mps 748 mmHg 81%
    19:00 0°C° 0 mm 3 mps 748 mmHg 84%
    20:00 -1°C° 0 mm 4 mps 748 mmHg 85%
    21:00 -1°C° 0 mm 4 mps 748 mmHg 85%
    22:00 -1°C° 0 mm 4 mps 749 mmHg 86%
    23:00 -1°C° 0 mm 4 mps 749 mmHg 87%

    27 November, Monday

    Time Temperature Precipitation Wind Pressure Humidity
    00:00 0°C° 0 mm 3 mps 749 mmHg 88%
    01:00 -1°C° 0 mm 3 mps 749 mmHg 89%
    02:00 -1°C° 0 mm 3 mps 748 mmHg 89%
    03:00 -1°C° 0 mm 3 mps 748 mmHg 89%
    04:00 -1°C° 0 mm 3 mps 748 mmHg 90%
    05:00 -1°C° 0 mm 3 mps 748 mmHg 90%
    06:00 -1°C° 0 mm 3 mps 748 mmHg 90%
    07:00 -1°C° 0 mm 3 mps 748 mmHg 90%
    08:00 0°C° 0 mm 3 mps 748 mmHg 87%
    09:00 0°C° 0 mm 3 mps 748 mmHg 84%
    10:00 +1°C° 0 mm 3 mps 748 mmHg 81%
    11:00 +1°C° 0 mm 4 mps 747 mmHg 78%
    12:00 +1°C° 0 mm 4 mps 747 mmHg 76%
    13:00 +3°C° 0 mm 4 mps 746 mmHg 73%
    14:00 +3°C° 0.1 mm 4 mps 746 mmHg 75%
    15:00 +3°C° 0.1 mm 4 mps 746 mmHg 77%
    16:00 +2°C° 0.1 mm 3 mps 745 mmHg 78%
    17:00 +2°C° 0 mm 3 mps 745 mmHg 80%
    18:00 +1°C° 0 mm 3 mps 745 mmHg 81%
    19:00 +1°C° 0 mm 3 mps 744 mmHg 83%
    20:00 +1°C° 0 mm 3 mps 744 mmHg 82%
    21:00 +1°C° 0 mm 3 mps 744 mmHg 81%
    22:00 +1°C° 0 mm 3 mps 744 mmHg 80%
    23:00 +1°C° 0.1 mm 3 mps 743 mmHg 78%

    28 November, Tuesday

    Time Temperature Precipitation Wind Pressure Humidity
    00:00 +1°C° 0.1 mm 3 mps 743 mmHg 77%
    01:00 +1°C° 0.1 mm 4 mps 742 mmHg 76%
    02:00 +1°C° 0.2 mm 4 mps 742 mmHg 76%
    03:00 +1°C° 0.2 mm 4 mps 741 mmHg 76%
    04:00 +1°C° 0.2 mm 4 mps 741 mmHg 76%
    05:00 +1°C° 0.5 mm 4 mps 740 mmHg 79%
    06:00 +1°C° 0.5 mm 4 mps 740 mmHg 81%
    07:00 +1°C° 0.5 mm 5 mps 739 mmHg 83%
    08:00 +1°C° 0.2 mm 5 mps 739 mmHg 83%
    09:00 +1°C° 0.2 mm 5 mps 739 mmHg 83%
    10:00 +2°C° 0.2 mm 5 mps 739 mmHg 82%
    11:00 +2°C° 0.1 mm 5 mps 738 mmHg 82%
    12:00 +4°C° 0.1 mm 4 mps 737 mmHg 82%
    13:00 +4°C° 0.1 mm 4 mps 737 mmHg 81%
    14:00 +4°C° 0.3 mm 4 mps 736 mmHg 83%
    15:00 +4°C° 0.3 mm 4 mps 736 mmHg 85%
    16:00 +3°C° 0.3 mm 3 mps 735 mmHg 86%
    17:00 +3°C° 0.1 mm 3 mps 735 mmHg 86%
    18:00 +3°C° 0.1 mm 3 mps 735 mmHg 86%
    19:00 +3°C° 0.1 mm 3 mps 735 mmHg 86%
    20:00 +3°C° 0.1 mm 3 mps 734 mmHg 86%
    21:00 +3°C° 0.1 mm 3 mps 734 mmHg 87%
    22:00 +3°C° 0.1 mm 4 mps 734 mmHg 87%
    23:00 +3°C° 0.2 mm 3 mps 734 mmHg 87%

    29 November, Wednesday

    Time Temperature Precipitation Wind Pressure Humidity
    00:00 +3°C° 0.2 mm 3 mps 734 mmHg 87%
    01:00 +3°C° 0.2 mm 3 mps 733 mmHg 87%
    02:00 +3°C° 0.3 mm 3 mps 733 mmHg 87%
    03:00 +3°C° 0.3 mm 3 mps 733 mmHg 87%
    04:00 +3°C° 0.3 mm 3 mps 733 mmHg 87%
    05:00 +3°C° 0.4 mm 3 mps 733 mmHg 87%
    06:00 +3°C° 0.4 mm 3 mps 732 mmHg 87%
    07:00 +2°C° 0.4 mm 3 mps 732 mmHg 88%
    08:00 +3°C° 0.3 mm 3 mps 732 mmHg 87%
    09:00 +3°C° 0.3 mm 3 mps 733 mmHg 87%
    10:00 +3°C° 0.3 mm 3 mps 733 mmHg 87%
    11:00 +3°C° 0.2 mm 3 mps 733 mmHg 85%
    12:00 +3°C° 0.2 mm 3 mps 732 mmHg 83%
    13:00 +4°C° 0.2 mm 3 mps 732 mmHg 82%
    14:00 +3°C° 0.1 mm 3 mps 732 mmHg 83%
    15:00 +4°C° 0.1 mm 2 mps 732 mmHg 85%
    16:00 +4°C° 0.1 mm 2 mps 732 mmHg 86%
    17:00 +4°C° 0.1 mm 2 mps 732 mmHg 87%
    18:00 +3°C° 0.1 mm 2 mps 732 mmHg 88%
    19:00 +3°C° 0.1 mm 2 mps 732 mmHg 88%
    20:00 +3°C° 0 mm 2 mps 732 mmHg 88%
    21:00 +2°C° 0 mm 2 mps 732 mmHg 89%
    22:00 +2°C° 0 mm 2 mps 732 mmHg 89%
    23:00 +2°C° 0 mm 2 mps 732 mmHg 89%
    Show more